Location: Grand Lay
(47.3253°N, 0.9468°E)
Time: 15:35:17
(UTC+00:00)

GRACE-FO 2 - Pass Details

Date: 18 January 2026
Orbit: 448 x 460 km, 89.0° (Epoch: 10 February)

Event Time Altitude Azimuth Distance (km) Brightness Sun altitude
Rises 06:50:36 0° 186° (S) 2,450 8.4 -7.9°
Reaches altitude 10° 06:52:39 10° 189° (S) 1,585 7.3 -7.5°
Maximum altitude 06:56:03 62° 271° (W) 518 4.4 -7.0°
Drops below altitude 10° 06:59:30 10° 353° (N) 1,608 6.9 -6.5°
Sets 07:01:36 0° 357° (N) 2,490 7.9 -6.1°
